DECAYED

STARLINK-4009, 52624 (Decayed)

Orbit data source: Space-Track

STARLINK-4009, 52624 was a payload satellite owned by SpaceX/Seattle (US) in LEO that was launched on Sat, 14 May 2022 UTC via an FALCON 9 launch vehicle from the Air Force Eastern Test Range (AFETR). Payload-class satellites include a variety of spacecraft equipped with specific instruments for various scientific and technological missions. These include communications satellites like Starlink; space stations such as the ISS; scientific satellites like the Hubble; Earth observation satellites from companies like Planet Labs, Umbra, and HawkEye 360; GPS; miniature CubeSats for education and research; and military/defense satellites.

Not visible in the next 10 days
Identifier
52624, 2022-052AC
Orbit
Decayed
Country
Flag of USUS
Related business
Manufacturer
SpaceX/Seattle
Mission
Decayed Commercial Communications
Bus & Motor
STARLINK, Unknown motor
Mass
297 kg wet, ~275 kg dry
Launch date (UTC)
2022-05-14 (4 years ago)
Launch vehicle
FALCON 9
Launch site
Air Force Eastern Test Range (AFETR)
Object type
Payload
Rocket body
Debris
Shape & HBR
Box + 1 Pan, 10.1 m
Radar Cross Section
13.562 m², Large (>1 m²)

Expand to show TLE details & history
Last TLE update: 1 year ago

TLE from 1 year ago
0 STARLINK-4009
1 52624U 22052AC  25005.00852006  .16627700  12461-4  13998-3 0  9993
2 52624  53.1883   7.9550 0012730 156.2951 306.7271 16.51135566147004
Epoch: 2025-01-05T00:12Z
TLE epoch observation values (Epoch: 2025-01-05T00:12:16.133Z)
Latitude
51.4536°
Longitude
10.98709°
Altitude
137.495 km
Speed
7.833 km/s
True Right ascension
07h 55m 37s
True Declination
51° 16' 12"
Sunlit
Object was in full shadow at epoch
Visualization orbit readout
Latitude
Unknown
Longitude
Unknown
Altitude
Unknown
Speed
Unknown
Apparent Right ascension
Unknown
Apparent Declination
Unknown
Sunlit
N/A
Visualization observer readout
Local Sidereal Time
21:30:11
Azimuth
Unknown
Elevation
Unknown
Doppler factor
Unknown
Orbital elements
Apogee altitude
144.905 km
Perigee altitude
128.318 km
Semi-major axis
6,514.749 km
Eccentricity
0.00127
Inclination
53.1883°
RAAN
7.955°
Arg. of periapsis
156.2951°
True anomaly
306.61007°
Mean anomaly
306.7271°
Eccentric anomaly
306.6686°
Mean motion
4.12759 °/min
Orbital period
87.22 mins
BSTAR
0.00013998
Loading maneuver chart data...
Computing Atmospheric mass density...
Loading historical data...
Loading historical data...
Loading historical data...
Loading historical data...
Loading historical data...
Loading historical data...
Loading historical data...

Documentation

Showing up to 5 results
|